This is the latest recevied weather packets stored in our database for station/object SP9MUF-14. If no packets are shown the sender has not sent any weather packets the latest 1 day(s).
| Time | Temp. | Humidity | Pressure | Rain* | Wind** | Luminosity | Snow |
|---|---|---|---|---|---|---|---|
| 1777988607 | 25.56° C | 22% | 1006.7 hPa | 0 mm | - | 222 W/m² | - |
| 1777988000 | 26.67° C | 22% | 1006.6 hPa | 0 mm | - | 232 W/m² | - |
| 1777986784 | 25.56° C | 21% | 1006.7 hPa | 0 mm | - | 154 W/m² | - |
| 1777985871 | 26.67° C | 21% | 1006.7 hPa | 0 mm | - | 161 W/m² | - |
| 1777984655 | 26.67° C | 20% | 1006.8 hPa | 0 mm | - | 281 W/m² | - |
| 1777984047 | 26.67° C | 20% | 1006.9 hPa | 0 mm | - | 519 W/m² | - |
| 1777983743 | 26.67° C | 20% | 1006.9 hPa | 0 mm | - | 600 W/m² | - |
| 1777983135 | 26.67° C | 20% | 1007 hPa | 0 mm | - | 613 W/m² | - |
| 1777981615 | 27.78° C | 21% | 1006.9 hPa | 0 mm | - | 741 W/m² | - |
| 1777981311 | 27.78° C | 21% | 1007 hPa | 0 mm | - | 671 W/m² | - |
| 1777981007 | 27.78° C | 21% | 1007 hPa | 0 mm | - | 715 W/m² | - |
| 1777979791 | 26.67° C | 22% | 1007.7 hPa | 0 mm | - | 637 W/m² | - |
| 1777979487 | 25.56° C | 23% | 1007.8 hPa | 0 mm | - | 734 W/m² | - |
| 1777979187 | 26.67° C | 22% | 1007.6 hPa | 0 mm | - | 282 W/m² | - |
| 1777978880 | 26.67° C | 22% | 1007.7 hPa | 0 mm | - | 685 W/m² | - |
| 1777978575 | 25.56° C | 21% | 1007.8 hPa | 0 mm | - | 661 W/m² | - |
| 1777978271 | 26.67° C | 22% | 1007.9 hPa | 0 mm | - | 536 W/m² | - |
| 1777977973 | 26.67° C | 21% | 1007.7 hPa | 0 mm | - | 545 W/m² | - |
| 1777977663 | 26.67° C | 21% | 1007.9 hPa | 0 mm | - | 754 W/m² | - |
| 1777977360 | 25.56° C | 21% | 1008 hPa | 0 mm | - | 561 W/m² | - |
| 1777977055 | 25.56° C | 21% | 1008.1 hPa | 0 mm | - | 566 W/m² | - |
| 1777976755 | 26.67° C | 20% | 1008.1 hPa | 0 mm | - | 523 W/m² | - |
| 1777976448 | 26.67° C | 22% | 1008.2 hPa | 0 mm | - | 569 W/m² | - |
| 1777976143 | 25.56° C | 23% | 1008.3 hPa | 0 mm | - | 676 W/m² | - |
| 1777975539 | 26.67° C | 21% | 1008.4 hPa | 0 mm | - | 338 W/m² | - |
* Rain latest hour (hover to see other rain measurements)
** Current wind speed in m/s (hover to see current wind gust speed)